ONEWEB-0613, 56071

Orbit data source: Space-Track

ONEWEB-0613, 56071 is a payload satellite owned by One Web (NAA) (UK) in LEO that was launched on Sun, 26 Mar 2023 UTC via a LVM3 launch vehicle from the Sirharikota (SRI). Payloads include a variety of satellites, spacecraft, and rockets equipped with specific instruments for various scientific and technological missions. These include communications satellites like Starlink; space stations such as the ISS; scientific satellites like the Hubble; Earth observation satellites from companies like Planet Labs, Umbra, and HawkEye 360; GPS; miniature CubeSats for education and research; and military/defense satellites.

Loading next visibility...
ONEWEB-0613 details
Identifier
56071, 2023-043AB
Orbit
LEO
Last TLE update16 hours ago
Origin
Flag of UKOne Web (NAA) (UK)
ManufacturerOne Web
MissionOperational Commercial Communications
Bus & MotorARROW, Unknown motor
Mass148 kg wet, ~140 kg dry
Launch date (UTC)
2023-03-26 (2 years ago)
Launch vehicle
LVM3
Launch site
Sirharikota (SRI)
Object type
Payload
Rocket body
Debris
Shape & HBRTrap Box + 2 Pan, 5 m
Radar Cross Section2.032 m², Large (>1 m²)

Expand to show TLE details & history

TLE from 16 hours ago
0 ONEWEB-0613
1 56071U 23043AB  25014.92439408 -.00000007  00000-0 -53633-4 0  9995
2 56071  87.9079   2.4101 0001592  93.9920 266.1393 13.15550003 88298
Epoch: 2025-01-14T22:11Z
Definitive object data (Epoch: 2025-01-14T22:11:07.648Z)
Latitude0.00004°
Longitude-84.99588°
Altitude1,204.742 km
Speed7.252 km/s
True Right ascension00h 09m 38s
True Declination0° 00' 00"
Sunlit
Object was in daylight at TLE epoch
Visualization TLE readout
Latitude-17.95763°
Longitude-85.80595°
Altitude1,209.113 km
Speed7.249 km/s
Apparent Right ascension01h 20m 28s
Apparent Declination-29° 47' 28"
Sunlit
Object is in daylight
Visualization observer readout
Local Sidereal Time15:12:05
Azimuth74.711° E
Elevation-65.096°
Doppler factor1
Orbital elements
Apogee altitude1,200.083 km
Perigee altitude1,197.671 km
Semi-major axis7,577.014 km
Eccentricity0.0001592
Inclination87.9079°
RAAN2.4101°
Arg. of periapsis93.992°
True anomaly266.1211°
Mean anomaly266.1393°
Eccentric anomaly266.1302°
Mean motion3.29076 °/min
BSTAR-0.000053633
Orbital period109.4 mins
Loading maneuver chart data...
Loading historical data...
Loading historical data...
Loading historical data...
Loading historical data...
Loading historical data...
Loading historical data...
Loading historical data...

ONEWEB-0613 Visibility forecast

Observer location: undefined°, undefined

Span
Click to sort rows by Start time (UTC) header in descending order
Start Az.
Max El. time (UTC)
Max El. Az.
Max El.
End time (UTC)
End Az.
9 mins2025-01-15 22:03:23.412Z116.702° SE2025-01-15 22:07:23.412Z78.937° E20.904°2025-01-15 22:12:23.412Z31.528° NE
12 mins2025-01-15 23:51:23.412Z196.456° SSW2025-01-15 23:56:23.412Z264.671° W41.805°2025-01-16 00:03:23.412Z353.687° N
7 mins2025-01-16 09:30:23.412Z42.732° NE2025-01-16 09:33:23.412Z69.636° E16.135°2025-01-16 09:37:23.412Z105.727° ESE
12 mins2025-01-16 11:18:23.412Z356.84° N2025-01-16 11:24:23.412Z238.825° WSW44.578°2025-01-16 11:30:23.412Z186.082° SSW
|